Weather in Krasnaya Belarus

Belarus     53°25′13″N   30°09′23″E
temp.,
°C
wind,
m/s
gust,
m/s
humid.,
%
clouds,
%
prec.,
mm/h
press.,
hPa
HPBL,
m
14 april, wed
wed1400:00+9sse1191100 0.0 101717
03:00+9se2394100 0.1 101763
06:00+9sse3692100 0.0 1016184
09:00+10se4785100 0.0 1017367
12:00+11se4778100 0.0 1017539
15:00+12se4670100 0.0 1016765
18:00+13ese456360 0.0 1015989
21:00+10ese2276100 0.1 101633
15 april, thu
thu1500:00+9ne2281100 0.0 101516
03:00+9ne2386100 0.4 101551
06:00+8ne3791100 0.4 1014195
09:00+8n4898100 6.3 1013429
12:00+10ese479355 2.6 1013473
15:00+13se236984 2.8 1012737
18:00+12ne4684100 1.8 1011420
21:00+9ene23945 5.8 101266
16 april, fri
fri1600:00+8e34945 0.0 101275
03:00+7ne349352 0.0 101260
06:00+8ne4109587 0.3 1012208
09:00+10ese6108040 0.9 1013775
12:00+13ese696185 0.1 10141659
15:00+13ese5963100 0.3 10151260
18:00+13ese47637 0.3 10151230
21:00+9e238151 0.6 101636
17 april, sat
sat1700:00+8se2285100 0.0 101715
03:00+6ese228999 0.0 101811
06:00+6ese22915 0.0 101916
09:00+10e34765 0.0 1020343
12:00+14e345859 0.1 10211236
15:00+14ne446085 0.4 10211055
18:00+11e478599 2.6 1022312
21:00+10ene5989100 2.9 1023367
18 april, sun
sun1800:00+10nne4990100 0.0 1023345
03:00+9ne389134 0.0 1023223
06:00+7ene4109269 0.0 1024265
09:00+10ene69775 0.0 1024449
12:00+14e67622 0.0 1024927
15:00+16e675799 0.0 10241572
18:00+14e5857100 0.0 1024321
21:00+12ese3771100 0.0 1026209